[[{"header":{"parameterUnit":"m.s-1","parameterCategory":1,"la1":30.2991,"la2":30.254,"lo1":-89.0895,"lo2":-89.0444,"dy":0.0017,"dx":0.0017,"nx":28,"ny":28,"refTime":"2025-07-23T21:00:00:Z","depth":0,"parameterNumber":2,"parameterNumberName":"U-component_of_WINDS"},"data":[0,0,0,0,0,0,0,0,0,0,0,0,0,0,0,0,0,0,0,0,0,0,0,0,0,0,0,0,0,0,0,0,0,0,0,0,0,0,0,0,0,0,0,0,0,0,0,0,0,0,0,0,0,0,0,0,0,0,-2.4142,-2.4141,0,-2.4102,-2.4102,-2.4101,-2.409,-2.409,-2.4091,-2.4091,-2.4047,-2.4046,-2.4045,0,0,0,0,0,0,0,0,0,0,0,0,0,-2.4205,-2.4204,-2.4142,-2.4141,-2.4141,-2.4102,-2.4102,-2.4101,-2.409,-2.409,-2.4091,-2.4091,-2.4048,-2.4046,-2.4044,0,0,0,0,0,0,0,0,0,0,0,0,0,-2.4173,-2.4204,-2.4142,-2.4131,-2.4129,-2.4102,-2.4102,-2.4101,-2.409,-2.409,-2.4091,-2.4091,-2.4048,-2.4046,-2.4044,-2.4025,0,0,-2.4038,-2.4037,0,0,0,0,0,0,0,0,-2.4174,-2.417,-2.4133,-2.4131,-2.413,-2.4101,-2.4108,-2.4075,-2.409,-2.4105,-2.4091,-2.4091,-2.4065,-2.4061,-2.4053,-2.4023,-2.4021,-2.4038,-2.4037,-2.4036,-2.4035,0,0,0,0,0,0,0,-2.4177,-2.4172,-2.4126,-2.4132,-2.413,-2.4127,-2.4123,-2.4102,-2.4083,-2.4103,-2.4103,-2.4098,-2.4064,-2.4055,-2.4052,-2.402,-2.4038,-2.4036,-2.4035,-2.4034,-2.3972,-2.3971,0,0,0,0,0,0,-2.4181,-2.4174,-2.4127,-2.4125,-2.4153,-2.4125,-2.4121,-2.411,-2.4083,-2.408,-2.4098,-2.4098,-2.4059,-2.4054,-2.405,-2.4026,-2.4036,-2.4034,-2.4033,-2.3972,-2.3972,-2.3971,0,0,0,0,0,0,-2.4183,-2.4177,-2.4129,-2.4149,-2.4143,-2.4124,-2.4112,-2.4109,-2.41,-2.4079,-2.4076,-2.4092,-2.4059,-2.4053,-2.4031,-2.4024,-2.4033,-2.4031,-2.3973,-2.3972,-2.3971,-2.3976,0,0,0,0,0,0,-2.4185,-2.4178,-2.4171,-2.4149,-2.4142,-2.4111,-2.4112,-2.4108,-2.4097,-2.4097,-2.4073,-2.407,-2.4058,-2.4035,-2.4029,-2.4021,-2.4029,-2.3973,-2.3972,-2.3972,-2.3977,-2.3976,-2.3975,0,0,0,0,0,-2.4187,-2.4173,-2.417,-2.4165,-2.4132,-2.4111,-2.4106,-2.4095,-2.4097,-2.4089,-2.4076,-2.407,-2.4026,-2.4032,-2.4026,-2.4018,-2.3974,-2.3973,-2.3972,-2.3977,-2.3976,-2.3975,0,0,0,0,0,0,-2.4193,-2.417,-2.4167,-2.4146,-2.413,-2.4109,-2.4099,-2.4094,-2.4077,-2.4077,-2.4062,-2.4057,-2.4036,-2.4025,-2.4032,-2.3998,-2.4,-2.3997,-2.4006,-2.4005,-2.4004,-2.4007,-2.4028,0,0,0,0,0,-2.4192,-2.4177,-2.4157,-2.4141,-2.4133,-2.4117,-2.4107,-2.41,-2.4083,-2.4076,-2.4061,-2.4044,-2.4027,-2.4015,-2.3998,-2.3975,-2.397,-2.3967,-2.3966,-2.3965,-2.3963,-2.3951,-2.3949,-2.3968,-2.3968,-2.3968,0,0,-2.4189,-2.4175,-2.4166,-2.4141,-2.4129,-2.4113,-2.4112,-2.4095,-2.4083,-2.4073,-2.4052,-2.404,-2.4021,-2.3999,-2.3988,-2.3988,-2.3957,-2.3964,-2.3964,-2.3962,-2.395,-2.3948,-2.3946,-2.3968,-2.3968,-2.3968,0,0,-2.4177,-2.4165,-2.4149,-2.4137,-2.4118,-2.4108,-2.4104,-2.4084,-2.4076,-2.4055,-2.4047,-2.4033,-2.4002,-2.3989,-2.3978,-2.3961,-2.3955,-2.3956,-2.3951,-2.3939,-2.3938,-2.3937,-2.393,-2.3928,-2.3954,-2.3954,-2.3954,0,-2.4176,-2.4152,-2.4142,-2.4126,-2.4115,-2.4107,-2.4091,-2.4079,-2.4055,-2.4047,-2.4049,-2.4011,-2.3997,-2.3972,-2.3968,-2.3959,-2.3954,-2.3958,-2.3939,-2.3938,-2.3936,-2.393,-2.3928,-2.3954,-2.3954,-2.3954,-2.3954,0,-2.4152,-2.4136,-2.4126,-2.4104,-2.4092,-2.4076,-2.4063,-2.4052,-2.4045,-2.4035,-2.4013,-2.3996,-2.3976,-2.3969,-2.3962,-2.3943,-2.3944,-2.3942,-2.3944,-2.3935,-2.3929,-2.3926,-2.3954,-2.3954,-2.3954,-2.3954,0,0,-2.4141,-2.4115,-2.4111,-2.4101,-2.408,-2.4067,-2.4051,-2.4032,-2.4022,-2.4006,-2.3992,-2.3967,-2.3966,-2.3954,-2.3945,-2.3935,-2.3923,-2.3935,-2.3934,-2.3933,-2.39,-2.3901,-2.3898,-2.3919,-2.3919,-2.3918,-2.3901,0,-2.4125,-2.4097,-2.4087,-2.4063,-2.4048,-2.404,-2.4026,-2.4011,-2.4001,-2.3986,-2.3975,-2.3958,-2.3958,-2.395,-2.3939,-2.3926,-2.3916,-2.3928,-2.3905,-2.3904,-2.391,-2.3895,-2.3896,-2.3881,-2.3899,-2.3899,-2.3898,0,-2.4103,-2.4088,-2.4063,-2.4044,-2.4038,-2.4025,-2.4007,-2.3993,-2.3976,-2.3969,-2.3956,-2.3949,-2.3931,-2.3935,-2.3909,-2.3918,-2.3908,-2.39,-2.3899,-2.3896,-2.39,-2.3891,-2.3875,-2.3873,-2.3895,-2.3895,-2.3895,0,-2.4097,-2.4071,-2.4052,-2.4044,-2.4022,-2.4013,-2.4004,-2.3987,-2.3977,-2.396,-2.3953,-2.3935,-2.3925,-2.391,-2.3898,-2.3902,-2.3874,-2.3877,-2.3867,-2.3868,-2.3861,-2.3862,-2.3843,-2.3856,-2.3856,-2.3856,-2.3856,0,-2.4081,-2.4065,-2.4049,-2.4038,-2.402,-2.4009,-2.3992,-2.3982,-2.3968,-2.3954,-2.3946,-2.3933,-2.3918,-2.3903,-2.3893,-2.3874,-2.3869,-2.3863,-2.386,-2.3863,-2.3864,-2.3856,-2.3856,-2.3855,-2.3856,-2.3856,-2.3856,0,-2.4071,-2.406,-2.4039,-2.402,-2.4015,-2.4003,-2.3987,-2.3975,-2.3965,-2.3948,-2.3943,-2.3927,-2.3909,-2.3896,-2.3872,-2.3865,-2.3844,-2.3842,-2.385,-2.3849,-2.384,-2.3841,-2.3816,-2.3812,-2.3828,-2.3828,-2.3828,0,-2.4061,-2.4049,-2.4029,-2.402,-2.4011,-2.3995,-2.3985,-2.3973,-2.3962,-2.3943,-2.3933,-2.3915,-2.3899,-2.3871,-2.3856,-2.3838,-2.3835,-2.3827,-2.3832,-2.3836,-2.3834,-2.3835,-2.3834,-2.3826,-2.3826,-2.3826,-2.3826,0,-2.4044,-2.4039,-2.4024,-2.4008,-2.3995,-2.3981,-2.3967,-2.396,-2.3946,-2.3934,-2.3916,-2.3904,-2.3881,-2.3862,-2.3843,-2.3832,-2.3826,-2.3825,-2.3822,-2.3824,-2.3829,-2.3826,-2.3848,-2.3825,-2.3825,-2.3826,-2.3826,-2.3826,-2.4033,-2.4022,-2.4007,-2.3991,-2.398,-2.3967,-2.3955,-2.3944,-2.3929,-2.391,-2.3904,-2.3885,-2.3869,-2.3842,-2.3831,-2.3816,-2.3816,-2.3812,-2.381,-2.3809,-2.3809,-2.3833,-2.3812,-2.3812,-2.3812,-2.3812,-2.3812,0,-2.4015,-2.4005,-2.3991,-2.3972,-2.3959,-2.3957,-2.3941,-2.393,-2.3914,-2.39,-2.3885,-2.3864,-2.3847,-2.3832,-2.3813,-2.3804,-2.3801,-2.3799,-2.38,-2.3797,-2.381,-2.3815,-2.3802,-2.3802,-2.3802,-2.3802,-2.3802,-2.3802,-2.4004,-2.3986,-2.398,-2.3956,-2.3946,-2.3928,-2.3919,-2.3907,-2.3896,-2.3873,-2.3859,-2.385,-2.3835,-2.3816,-2.3799,-2.3795,-2.3788,-2.3787,-2.3783,-2.3795,-2.3796,-2.3797,-2.3801,-2.3786,-2.3786,-2.3771,-2.3771,-2.377]},{"header":{"parameterUnit":"m.s-1","parameterCategory":1,"la1":30.2991,"la2":30.254,"lo1":-89.0895,"lo2":-89.0444,"dy":0.0017,"dx":0.0017,"nx":28,"ny":28,"refTime":"2025-07-23T21:00:00:Z","depth":0,"parameterNumber":3,"parameterNumberName":"V-component_of_WINDS"},"data":[0,0,0,0,0,0,0,0,0,0,0,0,0,0,0,0,0,0,0,0,0,0,0,0,0,0,0,0,0,0,0,0,0,0,0,0,0,0,0,0,0,0,0,0,0,0,0,0,0,0,0,0,0,0,0,0,0,0,5.3545,5.3545,0,5.3566,5.3566,5.3566,5.3505,5.3503,5.3502,5.35,5.3518,5.3521,5.3523,0,0,0,0,0,0,0,0,0,0,0,0,0,5.345,5.3452,5.3545,5.3545,5.3546,5.3566,5.3566,5.3566,5.3506,5.3503,5.3501,5.3499,5.3518,5.352,5.3523,0,0,0,0,0,0,0,0,0,0,0,0,0,5.3483,5.3453,5.3545,5.3518,5.3515,5.3566,5.3566,5.3566,5.3506,5.3503,5.35,5.3498,5.3517,5.352,5.3523,5.36,0,0,5.3534,5.3535,0,0,0,0,0,0,0,0,5.3481,5.3487,5.3521,5.352,5.3517,5.353,5.3539,5.3578,5.3507,5.351,5.35,5.3496,5.3524,5.3527,5.3537,5.3601,5.3602,5.3534,5.3536,5.3537,5.3538,0,0,0,0,0,0,0,5.3479,5.3485,5.3553,5.3522,5.3519,5.3504,5.3505,5.3546,5.3532,5.3509,5.3505,5.3508,5.3523,5.3534,5.3537,5.3602,5.3534,5.3537,5.3539,5.354,5.3731,5.3734,0,0,0,0,0,0,5.3481,5.3484,5.3552,5.3554,5.3492,5.3508,5.3509,5.3529,5.3532,5.353,5.3511,5.3505,5.3529,5.3533,5.3537,5.3628,5.3537,5.354,5.3542,5.3728,5.3731,5.3735,0,0,0,0,0,0,5.3479,5.3487,5.3552,5.3518,5.3525,5.3512,5.3535,5.3531,5.3542,5.3533,5.353,5.3525,5.3527,5.3533,5.3585,5.3628,5.3542,5.3545,5.3724,5.3729,5.3733,5.3809,0,0,0,0,0,0,5.3476,5.3487,5.3517,5.3519,5.3527,5.36,5.3537,5.3533,5.3548,5.3541,5.3545,5.3543,5.3526,5.3581,5.3589,5.3631,5.3548,5.372,5.3726,5.3732,5.3803,5.3816,5.3827,0,0,0,0,0,5.3473,5.3536,5.3518,5.3527,5.3564,5.3603,5.3607,5.3586,5.3552,5.3581,5.3575,5.3543,5.3622,5.3587,5.3595,5.3639,5.3718,5.3725,5.3731,5.3798,5.3813,5.3827,0,0,0,0,0,0,5.3538,5.3536,5.3516,5.3582,5.3593,5.3592,5.3629,5.3604,5.3624,5.3617,5.3589,5.359,5.3648,5.3649,5.3609,5.3714,5.3664,5.3673,5.3711,5.3726,5.3738,5.3737,5.355,0,0,0,0,0,5.356,5.3593,5.3589,5.3648,5.3655,5.3641,5.3657,5.364,5.365,5.3654,5.3652,5.3663,5.369,5.3708,5.3732,5.3803,5.3803,5.3837,5.3849,5.3859,5.3867,5.3905,5.392,5.3757,5.3757,5.3757,0,0,5.3606,5.3609,5.3631,5.3661,5.3668,5.3702,5.3645,5.3683,5.3708,5.366,5.371,5.3709,5.3718,5.3781,5.3808,5.3783,5.3912,5.3868,5.3876,5.3878,5.3914,5.3929,5.3943,5.3762,5.3761,5.376,0,0,5.3707,5.3713,5.3762,5.3771,5.3782,5.3773,5.3785,5.3788,5.3786,5.3836,5.3801,5.383,5.3877,5.3885,5.3895,5.4001,5.3972,5.401,5.4072,5.411,5.4123,5.4134,5.4172,5.4186,5.4018,5.4018,5.4018,0,5.3762,5.3813,5.3791,5.3832,5.3846,5.3806,5.3856,5.3864,5.3882,5.3893,5.3865,5.3924,5.3927,5.3991,5.4017,5.4027,5.4039,5.4009,5.4123,5.4134,5.4144,5.418,5.4194,5.4022,5.4022,5.4021,5.4021,0,5.388,5.3916,5.3955,5.3975,5.3994,5.4039,5.4023,5.4045,5.4027,5.402,5.4072,5.4075,5.4099,5.4113,5.4095,5.4175,5.4159,5.4128,5.4077,5.4164,5.4198,5.4211,5.4029,5.4027,5.4026,5.4025,0,0,5.4022,5.403,5.4045,5.4054,5.4064,5.4091,5.4135,5.416,5.4179,5.4193,5.4228,5.427,5.4241,5.4253,5.4236,5.4269,5.4353,5.4232,5.4232,5.4255,5.4441,5.4465,5.4481,5.4334,5.4336,5.4338,5.444,0,5.4121,5.4197,5.4179,5.4254,5.4287,5.4249,5.4287,5.4297,5.4293,5.4319,5.4313,5.4344,5.4303,5.431,5.4341,5.4336,5.439,5.4328,5.4366,5.4368,5.4365,5.4499,5.4524,5.462,5.4453,5.4455,5.4457,0,5.4248,5.4269,5.4347,5.4353,5.4366,5.44,5.4422,5.4449,5.4459,5.4453,5.4468,5.4444,5.4487,5.4437,5.4495,5.4454,5.4468,5.4468,5.4471,5.4474,5.4418,5.4505,5.465,5.4665,5.4477,5.4475,5.4474,0,5.4344,5.4391,5.4444,5.4453,5.4461,5.4486,5.449,5.4498,5.4515,5.4534,5.4544,5.4568,5.4581,5.4599,5.4583,5.4547,5.4644,5.4592,5.464,5.4641,5.4662,5.4661,5.4812,5.4671,5.4671,5.4671,5.467,0,5.4457,5.4506,5.4488,5.4521,5.4575,5.4554,5.4608,5.4607,5.4615,5.4647,5.4615,5.4645,5.4622,5.465,5.4637,5.4687,5.4693,5.469,5.4686,5.4693,5.4693,5.4702,5.4694,5.4675,5.4674,5.4673,5.4672,0,5.4573,5.4562,5.4618,5.4622,5.4624,5.4664,5.4666,5.4696,5.469,5.473,5.4738,5.4728,5.476,5.4745,5.4778,5.4769,5.4834,5.4821,5.4831,5.4828,5.4877,5.4873,5.5039,5.506,5.4906,5.4907,5.4909,0,5.4646,5.4684,5.4692,5.4711,5.4718,5.475,5.4767,5.4748,5.4767,5.4782,5.4811,5.484,5.4862,5.4914,5.4909,5.4934,5.4921,5.4978,5.4925,5.4931,5.4922,5.4921,5.4924,5.4988,5.499,5.4991,5.4993,0,5.4777,5.477,5.4797,5.4823,5.4845,5.4863,5.4879,5.4896,5.4877,5.4901,5.4933,5.4951,5.4985,5.5014,5.5036,5.5039,5.5013,5.501,5.5022,5.503,5.5034,5.5033,5.486,5.5006,5.5004,5.5003,5.5003,5.5002,5.4874,5.4906,5.4917,5.4948,5.4958,5.4974,5.5003,5.5001,5.5028,5.5055,5.5042,5.508,5.5089,5.5117,5.5124,5.5153,5.513,5.5149,5.5153,5.5158,5.5165,5.503,5.5157,5.5156,5.5156,5.5156,5.5155,0,5.5004,5.5009,5.5038,5.5062,5.5087,5.5061,5.5077,5.5099,5.5134,5.5146,5.5169,5.5206,5.5235,5.5233,5.5259,5.5282,5.5271,5.529,5.5288,5.5289,5.5183,5.517,5.5299,5.5299,5.5299,5.5299,5.5299,5.5299,5.5074,5.5127,5.5122,5.518,5.5184,5.5223,5.5234,5.5249,5.5258,5.5302,5.5326,5.5325,5.5331,5.5358,5.5383,5.5381,5.5392,5.5416,5.541,5.5311,5.5297,5.5283,5.527,5.5418,5.5418,5.5513,5.5514,5.5515]}]]